Location: Austin
(30.3000°N, 97.7500°W)
Time: 01:09:30
(UTC-05:00)

USA 234 - Pass Details

Date: 11 June 2024
Orbit: 1100 x 1107 km, 123.0° (Epoch: 16 June)

Event Time Altitude Azimuth Distance (km) Brightness Sun altitude
Rises 21:25:50 0° 37° (NE) 3,917 6.1 -10.5°
Reaches altitude 10° 21:28:20 10° 35° (NE) 2,957 5.5 -11.0°
Maximum altitude 21:34:48 68° 315° (NW) 1,172 3.7 -12.1°
Drops below altitude 10° 21:41:15 10° 233° (SW) 2,946 5.7 -13.2°
Sets 21:43:44 0° 231° (SW) 3,902 6.3 -13.7°
